User: anonymous   Login
Location: Unspecified
(0.0000°N, 0.0000°E)
Time: 10:24:21
(UTC+01:00)
Language:

Delta 2 Rocket - Orbit

View from above orbital plane
View from above orbital plane
View from above satellite
View from above satellite

Ground track
Ground track

The orbit data is extracted from the following two-line orbital elements,

1 20453U 90008B   17057.50250427  .00001631  00000-0  95691-4 0  9991
2 20453  35.6257 160.4297 0291102 327.7274  30.5922 14.82868735431764
Epoch (UTC): 26 February 2017 12:03:36
Eccentricity: 0.0291102
inclination: 35.6257°
perigee height: 416 km
apogee height: 824 km
right ascension of ascending node: 160.4297°
argument of perigee: 327.7274°
revolutions per day: 14.82868735
mean anomaly at epoch: 30.5922°
orbit number at epoch: 43176

The dashed part of the orbit path shows where the satellite is in the earth's shadow,  

DLR